Wetterdaten: Sonntag, 31.05.2015
Datum Zeit Auen-Temp. Temp gefhlt Luftfeuchte Luftdruck Regen Wind Richtung Richtung Taupunkt Windben
31.05.2015 00:00 11,8 C 11,7 C 77 % 1017,4 hPa 0,0 mm 0,0 km/h (0 Bft) S-SO 157 7,9 C 0,0 km/h (0 Bft)
31.05.2015 00:05 11,8 C 11,7 C 77 % 1017,4 hPa 0,0 mm 0,0 km/h (0 Bft) NO 45 7,9 C 0,0 km/h (0 Bft)
31.05.2015 00:10 11,7 C 11,6 C 78 % 1017,4 hPa 0,0 mm 0,0 km/h (0 Bft) S-SO 157 8,0 C 0,0 km/h (0 Bft)
31.05.2015 00:15 11,6 C 11,6 C 76 % 1017,4 hPa 0,0 mm 0,0 km/h (0 Bft) O-SO 112 7,5 C 0,0 km/h (0 Bft)
31.05.2015 00:20 11,5 C 11,4 C 78 % 1017,4 hPa 0,0 mm 0,0 km/h (0 Bft) O-NO 67 7,8 C 0,0 km/h (0 Bft)
31.05.2015 00:25 11,5 C 11,4 C 78 % 1017,4 hPa 0,0 mm 0,0 km/h (0 Bft) S-SO 157 7,8 C 0,0 km/h (0 Bft)
31.05.2015 00:30 11,5 C 11,3 C 78 % 1017,4 hPa 0,0 mm 0,0 km/h (0 Bft) O-SO 112 7,8 C 0,0 km/h (0 Bft)
31.05.2015 00:35 11,5 C 11,3 C 78 % 1017,4 hPa 0,0 mm 0,0 km/h (0 Bft) S-SO 157 7,8 C 0,0 km/h (0 Bft)
31.05.2015 00:40 11,4 C 11,3 C 79 % 1017,6 hPa 0,0 mm 0,0 km/h (0 Bft) O-SO 112 7,9 C 0,0 km/h (0 Bft)
31.05.2015 00:45 11,4 C 11,3 C 79 % 1017,6 hPa 0,0 mm 0,0 km/h (0 Bft) SO 135 7,9 C 0,0 km/h (0 Bft)
31.05.2015 00:50 11,4 C 11,3 C 79 % 1017,6 hPa 0,0 mm 0,0 km/h (0 Bft) SO 135 7,9 C 0,0 km/h (0 Bft)
31.05.2015 00:55 11,3 C 11,3 C 77 % 1017,6 hPa 0,0 mm 0,0 km/h (0 Bft) O-SO 112 7,4 C 0,0 km/h (0 Bft)
31.05.2015 01:00 11,3 C 11,2 C 79 % 1017,8 hPa 0,0 mm 0,0 km/h (0 Bft) O-SO 112 7,8 C 0,0 km/h (0 Bft)
31.05.2015 01:05 11,1 C 11,0 C 79 % 1017,8 hPa 0,0 mm 0,0 km/h (0 Bft) SO 135 7,6 C 0,0 km/h (0 Bft)
31.05.2015 01:10 10,9 C 10,8 C 79 % 1017,8 hPa 0,0 mm 0,0 km/h (0 Bft) SO 135 7,4 C 0,0 km/h (0 Bft)
31.05.2015 01:15 10,8 C 10,6 C 79 % 1017,8 hPa 0,0 mm 0,0 km/h (0 Bft) S-SO 157 7,3 C 0,0 km/h (0 Bft)
31.05.2015 01:20 10,7 C 10,5 C 80 % 1017,2 hPa 0,0 mm 0,0 km/h (0 Bft) O-SO 112 7,4 C 0,0 km/h (0 Bft)
31.05.2015 01:25 10,7 C 10,5 C 81 % 1017,2 hPa 0,0 mm 0,0 km/h (0 Bft) O-SO 112 7,6 C 0,0 km/h (0 Bft)
31.05.2015 01:30 10,4 C 10,2 C 80 % 1017,2 hPa 0,0 mm 0,0 km/h (0 Bft) O-SO 112 7,1 C 0,0 km/h (0 Bft)
31.05.2015 01:35 10,2 C 9,9 C 81 % 1017,2 hPa 0,0 mm 0,0 km/h (0 Bft) S-SO 157 7,1 C 2,8 km/h (1 Bft)
31.05.2015 01:40 10,2 C 9,9 C 82 % 1017,2 hPa 0,0 mm 0,5 km/h (0 Bft) SO 135 7,3 C 0,0 km/h (0 Bft)
31.05.2015 01:45 10,1 C 9,8 C 82 % 1017,2 hPa 0,0 mm 0,5 km/h (0 Bft) S 180 7,2 C 0,0 km/h (0 Bft)
31.05.2015 01:50 10,0 C 9,7 C 82 % 1017,2 hPa 0,0 mm 0,3 km/h (0 Bft) S-SO 157 7,1 C 0,0 km/h (0 Bft)
31.05.2015 01:55 9,9 C 9,7 C 80 % 1017,2 hPa 0,0 mm 0,3 km/h (0 Bft) S-SO 157 6,6 C 0,0 km/h (0 Bft)
31.05.2015 02:00 9,8 C 9,5 C 84 % 1017,1 hPa 0,0 mm 0,3 km/h (0 Bft) S-SO 157 7,2 C 0,0 km/h (0 Bft)
31.05.2015 02:05 9,7 C 9,4 C 83 % 1017,1 hPa 0,0 mm 0,0 km/h (0 Bft) S 180 7,0 C 0,0 km/h (0 Bft)
31.05.2015 02:10 9,3 C 9,1 C 83 % 1017,1 hPa 0,0 mm 0,0 km/h (0 Bft) SW 225 6,6 C 0,0 km/h (0 Bft)
31.05.2015 02:15 9,0 C 8,8 C 83 % 1017,1 hPa 0,0 mm 0,0 km/h (0 Bft) SW 225 6,3 C 0,0 km/h (0 Bft)
31.05.2015 02:20 9,0 C 8,8 C 83 % 1016,9 hPa 0,0 mm 0,0 km/h (0 Bft) S 180 6,3 C 0,0 km/h (0 Bft)
31.05.2015 02:25 8,8 C 8,6 C 83 % 1016,9 hPa 0,0 mm 0,0 km/h (0 Bft) SO 135 6,1 C 0,0 km/h (0 Bft)
31.05.2015 02:30 9,0 C 8,7 C 85 % 1016,9 hPa 0,0 mm 0,0 km/h (0 Bft) SO 135 6,6 C 0,0 km/h (0 Bft)
31.05.2015 02:35 9,0 C 8,7 C 85 % 1016,9 hPa 0,0 mm 0,0 km/h (0 Bft) SO 135 6,6 C 0,0 km/h (0 Bft)
31.05.2015 02:40 9,0 C 8,7 C 86 % 1016,8 hPa 0,0 mm 0,0 km/h (0 Bft) SO 135 6,8 C 0,0 km/h (0 Bft)
31.05.2015 02:45 8,8 C 8,6 C 85 % 1016,8 hPa 0,0 mm 0,0 km/h (0 Bft) SO 135 6,4 C 0,0 km/h (0 Bft)
31.05.2015 02:50 8,8 C 8,6 C 82 % 1016,8 hPa 0,0 mm 0,0 km/h (0 Bft) S-SO 157 5,9 C 0,0 km/h (0 Bft)
31.05.2015 02:55 8,9 C 8,6 C 86 % 1016,8 hPa 0,0 mm 0,0 km/h (0 Bft) S 180 6,7 C 0,0 km/h (0 Bft)
31.05.2015 03:00 8,7 C 8,6 C 82 % 1016,8 hPa 0,0 mm 0,0 km/h (0 Bft) S 180 5,8 C 0,0 km/h (0 Bft)
31.05.2015 03:05 8,5 C 8,4 C 86 % 1016,8 hPa 0,0 mm 0,0 km/h (0 Bft) SW 225 6,3 C 2,8 km/h (1 Bft)
31.05.2015 03:10 8,1 C 8,0 C 86 % 1016,8 hPa 0,0 mm 0,8 km/h (0 Bft) S 180 5,9 C 0,0 km/h (0 Bft)
31.05.2015 03:15 8,2 C 8,1 C 83 % 1016,8 hPa 0,0 mm 0,5 km/h (0 Bft) S-SO 157 5,5 C 3,4 km/h (1 Bft)
31.05.2015 03:20 8,1 C 8,0 C 87 % 1016,8 hPa 0,0 mm 0,5 km/h (0 Bft) SO 135 6,1 C 0,0 km/h (0 Bft)
31.05.2015 03:25 7,9 C 7,9 C 83 % 1016,8 hPa 0,0 mm 0,5 km/h (0 Bft) SO 135 5,2 C 0,0 km/h (0 Bft)
31.05.2015 03:30 7,8 C 7,7 C 83 % 1016,8 hPa 0,0 mm 0,3 km/h (0 Bft) S 180 5,1 C 2,6 km/h (1 Bft)
31.05.2015 03:35 7,7 C 7,7 C 83 % 1016,8 hPa 0,0 mm 1,3 km/h (1 Bft) S 180 5,0 C 3,4 km/h (1 Bft)
31.05.2015 03:40 7,6 C 7,6 C 83 % 1016,8 hPa 0,0 mm 1,3 km/h (1 Bft) O-SO 112 4,9 C 0,0 km/h (0 Bft)
31.05.2015 03:45 7,6 C 7,5 C 83 % 1016,8 hPa 0,0 mm 0,3 km/h (0 Bft) S-SO 157 4,9 C 0,0 km/h (0 Bft)
31.05.2015 03:50 7,6 C 7,5 C 88 % 1016,8 hPa 0,0 mm 0,3 km/h (0 Bft) W-NW 292 5,7 C 5,2 km/h (1 Bft)
31.05.2015 03:55 7,2 C 7,1 C 87 % 1016,8 hPa 0,0 mm 0,8 km/h (0 Bft) S-SW 202 5,2 C 0,0 km/h (0 Bft)
31.05.2015 04:00 7,4 C 7,3 C 84 % 1016,6 hPa 0,0 mm 0,5 km/h (0 Bft) S-SW 202 4,9 C 0,0 km/h (0 Bft)
31.05.2015 04:05 7,5 C 7,4 C 84 % 1016,6 hPa 0,0 mm 0,8 km/h (0 Bft) S-SW 202 5,0 C 2,6 km/h (1 Bft)
31.05.2015 04:10 7,3 C 7,4 C 84 % 1016,6 hPa 0,0 mm 0,8 km/h (0 Bft) S 180 4,8 C 0,0 km/h (0 Bft)
31.05.2015 04:15 7,2 C 7,1 C 88 % 1016,6 hPa 0,0 mm 0,3 km/h (0 Bft) S-SW 202 5,3 C 6,0 km/h (2 Bft)
31.05.2015 04:20 7,3 C 7,1 C 88 % 1016,4 hPa 0,0 mm 0,0 km/h (0 Bft) SW 225 5,4 C 0,0 km/h (0 Bft)
31.05.2015 04:25 7,3 C 7,1 C 88 % 1016,4 hPa 0,0 mm 0,0 km/h (0 Bft) W-SW 247 5,4 C 0,0 km/h (0 Bft)
31.05.2015 04:30 6,9 C 6,8 C 88 % 1016,4 hPa 0,0 mm 0,3 km/h (0 Bft) S 180 5,1 C 0,0 km/h (0 Bft)
31.05.2015 04:35 6,7 C 6,6 C 88 % 1016,4 hPa 0,0 mm 0,3 km/h (0 Bft) S 180 4,9 C 0,0 km/h (0 Bft)
31.05.2015 04:40 6,7 C 6,5 C 88 % 1016,4 hPa 0,0 mm 0,0 km/h (0 Bft) S 180 4,9 C 0,0 km/h (0 Bft)
31.05.2015 04:45 6,4 C 6,3 C 87 % 1016,4 hPa 0,0 mm 0,0 km/h (0 Bft) S 180 4,4 C 0,0 km/h (0 Bft)
31.05.2015 04:50 6,6 C 6,4 C 88 % 1016,4 hPa 0,0 mm 0,0 km/h (0 Bft) S 180 4,8 C 0,0 km/h (0 Bft)
31.05.2015 04:55 6,8 C 6,5 C 88 % 1016,4 hPa 0,0 mm 0,0 km/h (0 Bft) S 180 5,0 C 0,0 km/h (0 Bft)
31.05.2015 05:00 7,0 C 6,7 C 88 % 1016,5 hPa 0,0 mm 0,0 km/h (0 Bft) S 180 5,2 C 0,0 km/h (0 Bft)
31.05.2015 05:05 6,7 C 6,5 C 89 % 1016,5 hPa 0,0 mm 0,0 km/h (0 Bft) S 180 5,0 C 0,0 km/h (0 Bft)
31.05.2015 05:10 6,3 C 6,2 C 88 % 1016,5 hPa 0,0 mm 0,0 km/h (0 Bft) S 180 4,5 C 0,0 km/h (0 Bft)
31.05.2015 05:15 6,4 C 6,3 C 88 % 1016,5 hPa 0,0 mm 0,0 km/h (0 Bft) S 180 4,6 C 0,0 km/h (0 Bft)
31.05.2015 05:20 6,3 C 6,1 C 88 % 1016,6 hPa 0,0 mm 0,0 km/h (0 Bft) S 180 4,5 C 0,0 km/h (0 Bft)
31.05.2015 05:25 6,1 C 6,0 C 88 % 1016,6 hPa 0,0 mm 0,0 km/h (0 Bft) S 180 4,3 C 0,0 km/h (0 Bft)
31.05.2015 05:30 5,9 C 5,8 C 89 % 1016,6 hPa 0,0 mm 0,0 km/h (0 Bft) S 180 4,2 C 0,0 km/h (0 Bft)
31.05.2015 05:35 6,0 C 5,9 C 88 % 1016,6 hPa 0,0 mm 0,0 km/h (0 Bft) S 180 4,2 C 0,0 km/h (0 Bft)
31.05.2015 05:40 6,3 C 6,1 C 88 % 1016,4 hPa 0,0 mm 0,0 km/h (0 Bft) S 180 4,5 C 0,0 km/h (0 Bft)
31.05.2015 05:45 6,3 C 6,1 C 88 % 1016,4 hPa 0,0 mm 0,0 km/h (0 Bft) S 180 4,5 C 0,0 km/h (0 Bft)
31.05.2015 05:50 6,4 C 6,3 C 89 % 1016,4 hPa 0,0 mm 0,0 km/h (0 Bft) S 180 4,7 C 0,0 km/h (0 Bft)
31.05.2015 05:55 6,3 C 6,2 C 89 % 1016,4 hPa 0,0 mm 0,0 km/h (0 Bft) S 180 4,6 C 0,0 km/h (0 Bft)
31.05.2015 06:00 6,5 C 6,4 C 89 % 1016,4 hPa 0,0 mm 0,0 km/h (0 Bft) S 180 4,8 C 0,0 km/h (0 Bft)
31.05.2015 06:05 6,5 C 6,4 C 89 % 1016,4 hPa 0,0 mm 0,0 km/h (0 Bft) S 180 4,8 C 0,0 km/h (0 Bft)
31.05.2015 06:10 7,0 C 7,3 C 85 % 1016,4 hPa 0,0 mm 0,0 km/h (0 Bft) W 270 4,7 C 0,0 km/h (0 Bft)
31.05.2015 06:15 7,3 C 8,4 C 85 % 1016,4 hPa 0,0 mm 0,0 km/h (0 Bft) W 270 4,9 C 0,0 km/h (0 Bft)
31.05.2015 06:20 7,8 C 9,4 C 85 % 1016,2 hPa 0,0 mm 0,0 km/h (0 Bft) W-NW 292 5,4 C 0,0 km/h (0 Bft)
31.05.2015 06:25 8,2 C 9,8 C 85 % 1016,2 hPa 0,0 mm 0,0 km/h (0 Bft) W 270 5,8 C 0,0 km/h (0 Bft)
31.05.2015 06:30 8,6 C 10,8 C 85 % 1016,2 hPa 0,0 mm 0,5 km/h (0 Bft) NW 315 6,2 C 4,1 km/h (1 Bft)
31.05.2015 06:35 8,8 C 11,4 C 85 % 1016,2 hPa 0,0 mm 0,8 km/h (0 Bft) NW 315 6,4 C 0,0 km/h (0 Bft)
31.05.2015 06:40 8,9 C 12,2 C 85 % 1016,5 hPa 0,0 mm 0,3 km/h (0 Bft) N-NW 337 6,5 C 0,0 km/h (0 Bft)
31.05.2015 06:45 9,1 C 12,8 C 85 % 1016,5 hPa 0,0 mm 0,0 km/h (0 Bft) N-NW 337 6,7 C 0,0 km/h (0 Bft)
31.05.2015 06:50 9,4 C 12,4 C 88 % 1016,5 hPa 0,0 mm 0,0 km/h (0 Bft) O-NO 67 7,5 C 0,0 km/h (0 Bft)
31.05.2015 06:55 9,4 C 12,6 C 87 % 1016,5 hPa 0,0 mm 0,0 km/h (0 Bft) O-NO 67 7,3 C 0,0 km/h (0 Bft)
31.05.2015 07:00 9,5 C 11,6 C 87 % 1016,4 hPa 0,0 mm 0,0 km/h (0 Bft) NO 45 7,4 C 0,0 km/h (0 Bft)
31.05.2015 07:05 9,8 C 11,6 C 87 % 1016,4 hPa 0,0 mm 0,0 km/h (0 Bft) O 90 7,7 C 0,0 km/h (0 Bft)
31.05.2015 07:10 9,8 C 12,8 C 87 % 1016,4 hPa 0,0 mm 0,0 km/h (0 Bft) O 90 7,7 C 0,0 km/h (0 Bft)
31.05.2015 07:15 10,5 C 13,6 C 86 % 1016,4 hPa 0,0 mm 0,0 km/h (0 Bft) O-NO 67 8,3 C 0,0 km/h (0 Bft)
31.05.2015 07:20 11,0 C 14,2 C 82 % 1016,6 hPa 0,0 mm 0,0 km/h (0 Bft) N-NO 22 8,0 C 0,0 km/h (0 Bft)
31.05.2015 07:25 11,3 C 14,9 C 85 % 1016,6 hPa 0,0 mm 0,0 km/h (0 Bft) O 90 8,9 C 0,0 km/h (0 Bft)
31.05.2015 07:30 10,9 C 14,8 C 84 % 1016,6 hPa 0,0 mm 0,0 km/h (0 Bft) O-NO 67 8,3 C 0,0 km/h (0 Bft)
31.05.2015 07:35 10,9 C 14,4 C 84 % 1016,6 hPa 0,0 mm 0,0 km/h (0 Bft) N-NO 22 8,3 C 0,0 km/h (0 Bft)
31.05.2015 07:40 11,8 C 14,7 C 80 % 1016,6 hPa 0,0 mm 0,0 km/h (0 Bft) O-SO 112 8,5 C 0,0 km/h (0 Bft)
31.05.2015 07:45 12,3 C 16,1 C 82 % 1016,6 hPa 0,0 mm 0,0 km/h (0 Bft) O-NO 67 9,3 C 0,0 km/h (0 Bft)
31.05.2015 07:50 12,4 C 17,8 C 79 % 1016,6 hPa 0,0 mm 0,0 km/h (0 Bft) O-SO 112 8,9 C 0,0 km/h (0 Bft)
31.05.2015 07:55 12,2 C 17,8 C 79 % 1016,6 hPa 0,0 mm 0,0 km/h (0 Bft) O-SO 112 8,7 C 0,0 km/h (0 Bft)
31.05.2015 08:00 12,6 C 17,2 C 79 % 1016,5 hPa 0,0 mm 0,0 km/h (0 Bft) O-NO 67 9,1 C 0,0 km/h (0 Bft)
31.05.2015 08:05 12,6 C 17,3 C 79 % 1016,5 hPa 0,0 mm 0,0 km/h (0 Bft) O-NO 67 9,1 C 0,0 km/h (0 Bft)
31.05.2015 08:10 12,4 C 16,3 C 79 % 1016,5 hPa 0,0 mm 0,0 km/h (0 Bft) O-NO 67 8,9 C 0,0 km/h (0 Bft)
31.05.2015 08:15 12,4 C 16,2 C 79 % 1016,5 hPa 0,0 mm 0,0 km/h (0 Bft) O-NO 67 8,9 C 0,0 km/h (0 Bft)
31.05.2015 08:20 12,4 C 16,5 C 79 % 1016,9 hPa 0,0 mm 0,0 km/h (0 Bft) O-NO 67 8,9 C 0,0 km/h (0 Bft)
31.05.2015 08:25 12,4 C 17,8 C 79 % 1016,9 hPa 0,0 mm 0,0 km/h (0 Bft) O-NO 67 8,9 C 0,0 km/h (0 Bft)
31.05.2015 08:30 12,4 C 18,8 C 79 % 1016,9 hPa 0,0 mm 0,0 km/h (0 Bft) O-NO 67 8,9 C 0,0 km/h (0 Bft)
31.05.2015 08:35 12,4 C 19,1 C 79 % 1016,9 hPa 0,0 mm 0,0 km/h (0 Bft) N-NO 22 8,9 C 0,0 km/h (0 Bft)
31.05.2015 08:40 12,4 C 20,1 C 79 % 1016,6 hPa 0,0 mm 0,0 km/h (0 Bft) N-NO 22 8,9 C 0,0 km/h (0 Bft)
31.05.2015 08:45 12,4 C 19,9 C 79 % 1016,6 hPa 0,0 mm 0,0 km/h (0 Bft) N-NO 22 8,9 C 0,0 km/h (0 Bft)
31.05.2015 08:50 15,1 C 20,1 C 73 % 1016,6 hPa 0,0 mm 0,0 km/h (0 Bft) N-NO 22 10,3 C 0,0 km/h (0 Bft)
31.05.2015 08:55 15,1 C 20,0 C 72 % 1016,6 hPa 0,0 mm 0,0 km/h (0 Bft) NO 45 10,1 C 0,0 km/h (0 Bft)
31.05.2015 09:00 14,9 C 19,4 C 72 % 1016,8 hPa 0,0 mm 0,3 km/h (0 Bft) N-NO 22 9,9 C 0,0 km/h (0 Bft)
31.05.2015 09:05 14,9 C 19,2 C 72 % 1016,8 hPa 0,0 mm 0,3 km/h (0 Bft) N-NO 22 9,9 C 0,0 km/h (0 Bft)
31.05.2015 09:10 14,9 C 19,1 C 72 % 1016,8 hPa 0,0 mm 0,5 km/h (0 Bft) N-NO 22 9,9 C 0,0 km/h (0 Bft)
31.05.2015 09:15 14,9 C 19,5 C 72 % 1016,8 hPa 0,0 mm 0,3 km/h (0 Bft) NO 45 9,9 C 0,0 km/h (0 Bft)
31.05.2015 09:20 14,9 C 19,5 C 72 % 1016,9 hPa 0,0 mm 1,3 km/h (1 Bft) N 360 9,9 C 3,4 km/h (1 Bft)
31.05.2015 09:25 14,9 C 20,5 C 72 % 1016,9 hPa 0,0 mm 1,8 km/h (1 Bft) N-NO 22 9,9 C 6,0 km/h (2 Bft)
31.05.2015 09:30 14,9 C 20,3 C 72 % 1016,9 hPa 0,0 mm 2,1 km/h (1 Bft) O 90 9,9 C 2,8 km/h (1 Bft)
31.05.2015 09:35 14,9 C 19,9 C 72 % 1016,9 hPa 0,0 mm 2,1 km/h (1 Bft) N-NO 22 9,9 C 0,0 km/h (0 Bft)
31.05.2015 09:40 14,9 C 19,6 C 72 % 1016,9 hPa 0,0 mm 2,6 km/h (1 Bft) O-SO 112 9,9 C 4,1 km/h (1 Bft)
31.05.2015 09:45 14,9 C 19,6 C 72 % 1016,9 hPa 0,0 mm 2,6 km/h (1 Bft) NO 45 9,9 C 9,3 km/h (2 Bft)
31.05.2015 09:50 14,9 C 20,2 C 72 % 1016,9 hPa 0,0 mm 1,0 km/h (0 Bft) NW 315 9,9 C 0,0 km/h (0 Bft)
31.05.2015 09:55 14,9 C 20,6 C 72 % 1016,9 hPa 0,0 mm 1,8 km/h (1 Bft) NW 315 9,9 C 8,8 km/h (2 Bft)
31.05.2015 10:00 14,9 C 20,8 C 72 % 1017,2 hPa 0,0 mm 4,1 km/h (1 Bft) N-NW 337 9,9 C 7,3 km/h (2 Bft)
31.05.2015 10:05 14,9 C 20,8 C 72 % 1017,2 hPa 0,0 mm 4,1 km/h (1 Bft) N-NO 22 9,9 C 2,6 km/h (1 Bft)
31.05.2015 10:10 14,9 C 20,9 C 72 % 1017,2 hPa 0,0 mm 3,4 km/h (1 Bft) NW 315 9,9 C 0,0 km/h (0 Bft)
31.05.2015 10:15 14,9 C 20,9 C 72 % 1017,2 hPa 0,0 mm 3,4 km/h (1 Bft) NW 315 9,9 C 10,4 km/h (2 Bft)
31.05.2015 10:20 14,9 C 21,0 C 72 % 1017,1 hPa 0,0 mm 3,9 km/h (1 Bft) SW 225 9,9 C 5,4 km/h (1 Bft)
31.05.2015 10:25 14,9 C 20,3 C 72 % 1017,1 hPa 0,0 mm 4,7 km/h (1 Bft) N-NW 337 9,9 C 11,1 km/h (2 Bft)
31.05.2015 10:30 14,9 C 20,4 C 72 % 1017,1 hPa 0,0 mm 3,6 km/h (1 Bft) NW 315 9,9 C 8,3 km/h (2 Bft)
31.05.2015 10:35 14,9 C 20,2 C 72 % 1017,1 hPa 0,0 mm 2,6 km/h (1 Bft) W-NW 292 9,9 C 0,0 km/h (0 Bft)
31.05.2015 10:40 14,9 C 20,4 C 72 % 1017,1 hPa 0,0 mm 2,3 km/h (1 Bft) SW 225 9,9 C 3,6 km/h (1 Bft)
31.05.2015 10:45 14,9 C 20,9 C 72 % 1017,1 hPa 0,0 mm 1,3 km/h (1 Bft) W-NW 292 9,9 C 0,0 km/h (0 Bft)
31.05.2015 10:50 14,9 C 22,8 C 72 % 1017,1 hPa 0,0 mm 1,8 km/h (1 Bft) W-NW 292 9,9 C 6,2 km/h (2 Bft)
31.05.2015 10:55 14,9 C 23,4 C 72 % 1017,1 hPa 0,0 mm 1,0 km/h (0 Bft) W-NW 292 9,9 C 4,7 km/h (1 Bft)
31.05.2015 11:00 14,9 C 24,2 C 72 % 1017,1 hPa 0,0 mm 2,6 km/h (1 Bft) NW 315 9,9 C 4,4 km/h (1 Bft)
31.05.2015 11:05 14,9 C 24,6 C 72 % 1017,1 hPa 0,0 mm 3,1 km/h (1 Bft) S-SO 157 9,9 C 3,1 km/h (1 Bft)
31.05.2015 11:10 14,9 C 26,0 C 72 % 1017,1 hPa 0,0 mm 1,6 km/h (1 Bft) NO 45 9,9 C 0,0 km/h (0 Bft)
31.05.2015 11:15 14,9 C 26,5 C 72 % 1017,1 hPa 0,0 mm 2,3 km/h (1 Bft) NO 45 9,9 C 12,2 km/h (2 Bft)
31.05.2015 11:20 14,9 C 24,8 C 72 % 1017,0 hPa 0,0 mm 4,7 km/h (1 Bft) N-NW 337 9,9 C 4,1 km/h (1 Bft)
31.05.2015 11:25 14,9 C 24,2 C 72 % 1017,0 hPa 0,0 mm 4,7 km/h (1 Bft) SO 135 9,9 C 12,2 km/h (2 Bft)
31.05.2015 11:30 14,9 C 24,2 C 72 % 1017,0 hPa 0,0 mm 2,6 km/h (1 Bft) O-SO 112 9,9 C 4,9 km/h (1 Bft)
31.05.2015 11:35 14,9 C 23,7 C 72 % 1017,0 hPa 0,0 mm 2,6 km/h (1 Bft) SO 135 9,9 C 2,8 km/h (1 Bft)
31.05.2015 11:40 14,9 C 23,4 C 72 % 1016,9 hPa 0,0 mm 2,3 km/h (1 Bft) NW 315 9,9 C 3,1 km/h (1 Bft)
31.05.2015 11:45 14,9 C 23,5 C 72 % 1016,9 hPa 0,0 mm 2,1 km/h (1 Bft) NW 315 9,9 C 4,7 km/h (1 Bft)
31.05.2015 11:50 14,9 C 23,3 C 72 % 1016,9 hPa 0,0 mm 3,6 km/h (1 Bft) O-NO 67 9,9 C 2,8 km/h (1 Bft)
31.05.2015 11:55 14,9 C 23,6 C 72 % 1016,9 hPa 0,0 mm 5,4 km/h (1 Bft) N-NO 22 9,9 C 3,9 km/h (1 Bft)
31.05.2015 12:00 14,9 C 24,1 C 72 % 1016,9 hPa 0,0 mm 6,7 km/h (2 Bft) NW 315 9,9 C 3,1 km/h (1 Bft)
31.05.2015 12:05 14,9 C 24,6 C 72 % 1016,9 hPa 0,0 mm 6,0 km/h (2 Bft) O-SO 112 9,9 C 13,5 km/h (3 Bft)
31.05.2015 12:10 14,9 C 24,4 C 72 % 1016,9 hPa 0,0 mm 5,7 km/h (1 Bft) NW 315 9,9 C 10,9 km/h (2 Bft)
31.05.2015 12:15 14,9 C 24,2 C 72 % 1016,9 hPa 0,0 mm 5,7 km/h (1 Bft) NO 45 9,9 C 3,9 km/h (1 Bft)
31.05.2015 12:20 14,9 C 23,8 C 72 % 1016,6 hPa 0,0 mm 5,4 km/h (1 Bft) NO 45 9,9 C 6,0 km/h (2 Bft)
31.05.2015 12:25 14,9 C 22,8 C 72 % 1016,6 hPa 0,0 mm 5,2 km/h (1 Bft) N-NW 337 9,9 C 14,2 km/h (3 Bft)
31.05.2015 12:30 14,9 C 22,1 C 72 % 1016,6 hPa 0,0 mm 4,9 km/h (1 Bft) NW 315 9,9 C 7,8 km/h (2 Bft)
31.05.2015 12:35 14,9 C 22,0 C 72 % 1016,6 hPa 0,0 mm 4,7 km/h (1 Bft) N-NW 337 9,9 C 8,0 km/h (2 Bft)
31.05.2015 12:40 14,9 C 22,3 C 72 % 1016,7 hPa 0,0 mm 3,6 km/h (1 Bft) O-NO 67 9,9 C 2,8 km/h (1 Bft)
31.05.2015 12:45 14,9 C 22,8 C 72 % 1016,7 hPa 0,0 mm 2,8 km/h (1 Bft) N-NO 22 9,9 C 0,0 km/h (0 Bft)
31.05.2015 12:50 14,9 C 23,1 C 72 % 1016,7 hPa 0,0 mm 3,6 km/h (1 Bft) N-NW 337 9,9 C 2,8 km/h (1 Bft)
31.05.2015 12:55 14,9 C 23,1 C 72 % 1016,7 hPa 0,0 mm 4,4 km/h (1 Bft) NO 45 9,9 C 10,9 km/h (2 Bft)
31.05.2015 13:00 14,9 C 23,5 C 72 % 1016,4 hPa 0,0 mm 3,4 km/h (1 Bft) NO 45 9,9 C 6,2 km/h (2 Bft)
31.05.2015 13:05 14,9 C 23,8 C 72 % 1016,4 hPa 0,0 mm 4,1 km/h (1 Bft) O-NO 67 9,9 C 8,3 km/h (2 Bft)
31.05.2015 13:10 14,9 C 24,2 C 72 % 1016,4 hPa 0,0 mm 3,4 km/h (1 Bft) W-NW 292 9,9 C 0,0 km/h (0 Bft)
31.05.2015 13:15 14,9 C 24,5 C 72 % 1016,4 hPa 0,0 mm 2,6 km/h (1 Bft) N-NO 22 9,9 C 11,4 km/h (2 Bft)
31.05.2015 13:20 14,9 C 23,3 C 72 % 1016,2 hPa 0,0 mm 6,5 km/h (2 Bft) NW 315 9,9 C 7,8 km/h (2 Bft)
31.05.2015 13:25 14,9 C 23,3 C 72 % 1016,2 hPa 0,0 mm 7,3 km/h (2 Bft) N-NW 337 9,9 C 17,6 km/h (3 Bft)
31.05.2015 13:30 14,9 C 22,9 C 72 % 1016,2 hPa 0,0 mm 6,0 km/h (2 Bft) NW 315 9,9 C 10,6 km/h (2 Bft)
31.05.2015 13:35 14,9 C 22,7 C 72 % 1016,2 hPa 0,0 mm 6,2 km/h (2 Bft) N-NW 337 9,9 C 11,7 km/h (2 Bft)
31.05.2015 13:40 14,9 C 22,7 C 72 % 1016,3 hPa 0,0 mm 5,2 km/h (1 Bft) S-SO 157 9,9 C 3,6 km/h (1 Bft)
31.05.2015 13:45 14,9 C 23,1 C 72 % 1016,3 hPa 0,0 mm 3,4 km/h (1 Bft) N-NW 337 9,9 C 5,4 km/h (1 Bft)
31.05.2015 13:50 14,9 C 23,0 C 72 % 1016,3 hPa 0,0 mm 6,0 km/h (2 Bft) N 360 9,9 C 7,0 km/h (2 Bft)
31.05.2015 13:55 14,9 C 22,6 C 72 % 1016,3 hPa 0,0 mm 8,3 km/h (2 Bft) N-NO 22 9,9 C 21,8 km/h (4 Bft)
31.05.2015 14:00 14,9 C 22,5 C 72 % 1016,2 hPa 0,0 mm 6,0 km/h (2 Bft) NW 315 9,9 C 13,7 km/h (3 Bft)
31.05.2015 14:05 14,9 C 22,2 C 72 % 1016,2 hPa 0,0 mm 5,4 km/h (1 Bft) NO 45 9,9 C 6,5 km/h (2 Bft)
31.05.2015 14:10 19,0 C 22,1 C 55 % 1016,2 hPa 0,0 mm 6,5 km/h (2 Bft) N-NO 22 9,8 C 8,8 km/h (2 Bft)
31.05.2015 14:15 19,4 C 22,6 C 56 % 1016,2 hPa 0,0 mm 6,5 km/h (2 Bft) NW 315 10,4 C 8,0 km/h (2 Bft)
31.05.2015 14:20 19,8 C 23,5 C 55 % 1016,2 hPa 0,0 mm 7,0 km/h (2 Bft) N-NW 337 10,5 C 15,0 km/h (3 Bft)
31.05.2015 14:25 19,5 C 23,3 C 55 % 1016,2 hPa 0,0 mm 8,3 km/h (2 Bft) W 270 10,2 C 14,5 km/h (3 Bft)
31.05.2015 14:30 19,2 C 22,3 C 55 % 1016,2 hPa 0,0 mm 6,7 km/h (2 Bft) NO 45 9,9 C 2,6 km/h (1 Bft)
31.05.2015 14:35 19,1 C 22,0 C 55 % 1016,2 hPa 0,0 mm 4,1 km/h (1 Bft) W-NW 292 9,8 C 5,2 km/h (1 Bft)
31.05.2015 14:40 19,1 C 21,8 C 56 % 1016,1 hPa 0,0 mm 1,6 km/h (1 Bft) W-NW 292 10,1 C 0,0 km/h (0 Bft)
31.05.2015 14:45 19,2 C 21,9 C 56 % 1016,1 hPa 0,0 mm 1,3 km/h (1 Bft) W-SW 247 10,2 C 0,0 km/h (0 Bft)
31.05.2015 14:50 19,0 C 22,3 C 56 % 1016,1 hPa 0,0 mm 1,8 km/h (1 Bft) W-NW 292 10,0 C 5,7 km/h (1 Bft)
31.05.2015 14:55 19,1 C 22,2 C 55 % 1016,1 hPa 0,0 mm 3,4 km/h (1 Bft) NW 315 9,8 C 2,8 km/h (1 Bft)
31.05.2015 15:00 18,9 C 21,6 C 55 % 1016,0 hPa 0,0 mm 3,9 km/h (1 Bft) N-NW 337 9,7 C 0,0 km/h (0 Bft)
31.05.2015 15:05 18,8 C 21,4 C 55 % 1016,0 hPa 0,0 mm 2,6 km/h (1 Bft) N-NO 22 9,6 C 8,3 km/h (2 Bft)
31.05.2015 15:10 18,7 C 20,8 C 55 % 1016,0 hPa 0,0 mm 4,1 km/h (1 Bft) NO 45 9,5 C 8,0 km/h (2 Bft)
31.05.2015 15:15 18,7 C 20,6 C 55 % 1016,0 hPa 0,0 mm 5,7 km/h (1 Bft) N-NW 337 9,5 C 10,4 km/h (2 Bft)
31.05.2015 15:20 18,5 C 20,2 C 55 % 1016,1 hPa 0,0 mm 5,4 km/h (1 Bft) N-NO 22 9,3 C 4,1 km/h (1 Bft)
31.05.2015 15:25 18,5 C 20,0 C 55 % 1016,1 hPa 0,0 mm 5,2 km/h (1 Bft) N-NW 337 9,3 C 4,1 km/h (1 Bft)
31.05.2015 15:30 18,7 C 20,3 C 54 % 1016,1 hPa 0,0 mm 4,1 km/h (1 Bft) N-NW 337 9,2 C 4,4 km/h (1 Bft)
31.05.2015 15:35 18,9 C 20,9 C 55 % 1016,1 hPa 0,0 mm 3,6 km/h (1 Bft) W-NW 292 9,7 C 10,1 km/h (2 Bft)
31.05.2015 15:40 19,3 C 21,7 C 54 % 1015,8 hPa 0,0 mm 3,1 km/h (1 Bft) N-NO 22 9,8 C 3,1 km/h (1 Bft)
31.05.2015 15:45 19,4 C 22,4 C 54 % 1015,8 hPa 0,0 mm 3,4 km/h (1 Bft) NW 315 9,8 C 4,4 km/h (1 Bft)
31.05.2015 15:50 19,3 C 22,7 C 53 % 1015,8 hPa 0,0 mm 3,6 km/h (1 Bft) N-NW 337 9,5 C 4,1 km/h (1 Bft)
31.05.2015 15:55 19,3 C 22,8 C 54 % 1015,8 hPa 0,0 mm 4,1 km/h (1 Bft) NW 315 9,8 C 7,3 km/h (2 Bft)
31.05.2015 16:00 19,3 C 22,4 C 54 % 1015,9 hPa 0,0 mm 4,9 km/h (1 Bft) NW 315 9,8 C 7,8 km/h (2 Bft)
31.05.2015 16:05 19,3 C 22,3 C 54 % 1015,9 hPa 0,0 mm 4,9 km/h (1 Bft) S-SO 157 9,8 C 0,0 km/h (0 Bft)
31.05.2015 16:10 19,3 C 22,5 C 54 % 1015,9 hPa 0,0 mm 3,6 km/h (1 Bft) O-NO 67 9,8 C 6,5 km/h (2 Bft)
31.05.2015 16:15 19,3 C 22,7 C 54 % 1015,9 hPa 0,0 mm 2,3 km/h (1 Bft) O-NO 67 9,8 C 0,0 km/h (0 Bft)
31.05.2015 16:20 19,3 C 23,1 C 54 % 1015,6 hPa 0,0 mm 2,3 km/h (1 Bft) NW 315 9,8 C 3,9 km/h (1 Bft)
31.05.2015 16:25 19,3 C 23,1 C 54 % 1015,6 hPa 0,0 mm 1,6 km/h (1 Bft) NW 315 9,8 C 3,6 km/h (1 Bft)
31.05.2015 16:30 19,3 C 23,5 C 54 % 1015,6 hPa 0,0 mm 2,3 km/h (1 Bft) N-NW 337 9,8 C 7,3 km/h (2 Bft)
31.05.2015 16:35 19,2 C 23,3 C 53 % 1015,6 hPa 0,0 mm 2,8 km/h (1 Bft) O 90 9,4 C 0,0 km/h (0 Bft)
31.05.2015 16:40 19,2 C 23,7 C 53 % 1015,8 hPa 0,0 mm 2,3 km/h (1 Bft) SO 135 9,4 C 4,7 km/h (1 Bft)
31.05.2015 16:45 19,2 C 23,9 C 53 % 1015,8 hPa 0,0 mm 1,3 km/h (1 Bft) O-NO 67 9,4 C 0,0 km/h (0 Bft)
31.05.2015 16:50 19,2 C 23,9 C 53 % 1015,8 hPa 0,0 mm 2,6 km/h (1 Bft) NW 315 9,4 C 4,1 km/h (1 Bft)
31.05.2015 16:55 19,3 C 23,7 C 54 % 1015,8 hPa 0,0 mm 2,6 km/h (1 Bft) NW 315 9,8 C 0,0 km/h (0 Bft)
31.05.2015 17:00 19,5 C 23,1 C 54 % 1015,7 hPa 0,0 mm 2,3 km/h (1 Bft) W 270 9,9 C 3,4 km/h (1 Bft)
31.05.2015 17:05 19,5 C 22,9 C 54 % 1015,7 hPa 0,0 mm 1,6 km/h (1 Bft) W 270 9,9 C 0,0 km/h (0 Bft)
31.05.2015 17:10 19,4 C 22,6 C 53 % 1015,7 hPa 0,0 mm 0,3 km/h (0 Bft) S 180 9,6 C 0,0 km/h (0 Bft)
31.05.2015 17:15 19,1 C 22,3 C 53 % 1015,7 hPa 0,0 mm 0,8 km/h (0 Bft) SW 225 9,3 C 0,0 km/h (0 Bft)
31.05.2015 17:20 18,9 C 21,9 C 53 % 1015,6 hPa 0,0 mm 1,3 km/h (1 Bft) NW 315 9,1 C 7,8 km/h (2 Bft)
31.05.2015 17:25 18,9 C 21,4 C 54 % 1015,6 hPa 0,0 mm 2,6 km/h (1 Bft) N-NW 337 9,4 C 4,9 km/h (1 Bft)
31.05.2015 17:30 19,0 C 21,1 C 54 % 1015,6 hPa 0,0 mm 3,1 km/h (1 Bft) W-NW 292 9,5 C 0,0 km/h (0 Bft)
31.05.2015 17:35 19,1 C 21,0 C 54 % 1015,6 hPa 0,0 mm 2,1 km/h (1 Bft) N-NW 337 9,6 C 6,0 km/h (2 Bft)
31.05.2015 17:40 19,0 C 20,9 C 53 % 1015,6 hPa 0,0 mm 1,6 km/h (1 Bft) N-NO 22 9,2 C 0,0 km/h (0 Bft)
31.05.2015 17:45 18,9 C 21,0 C 55 % 1015,6 hPa 0,0 mm 1,0 km/h (0 Bft) N-NO 22 9,7 C 0,0 km/h (0 Bft)
31.05.2015 17:50 19,0 C 21,2 C 55 % 1015,6 hPa 0,0 mm 0,0 km/h (0 Bft) N-NO 22 9,8 C 0,0 km/h (0 Bft)
31.05.2015 17:55 19,0 C 21,2 C 53 % 1015,6 hPa 0,0 mm 0,8 km/h (0 Bft) NO 45 9,2 C 4,4 km/h (1 Bft)
31.05.2015 18:00 18,9 C 20,9 C 53 % 1015,5 hPa 0,0 mm 3,4 km/h (1 Bft) NO 45 9,1 C 3,4 km/h (1 Bft)
31.05.2015 18:05 18,9 C 20,9 C 53 % 1015,5 hPa 0,0 mm 3,9 km/h (1 Bft) O-NO 67 9,1 C 3,1 km/h (1 Bft)
31.05.2015 18:10 18,8 C 21,0 C 54 % 1015,5 hPa 0,0 mm 1,8 km/h (1 Bft) NO 45 9,3 C 0,0 km/h (0 Bft)
31.05.2015 18:15 18,8 C 21,1 C 54 % 1015,5 hPa 0,0 mm 1,0 km/h (0 Bft) O-NO 67 9,3 C 0,0 km/h (0 Bft)
31.05.2015 18:20 18,8 C 21,3 C 54 % 1015,4 hPa 0,0 mm 0,0 km/h (0 Bft) O-NO 67 9,3 C 0,0 km/h (0 Bft)
31.05.2015 18:25 18,8 C 21,5 C 55 % 1015,4 hPa 0,0 mm 0,0 km/h (0 Bft) O-NO 67 9,6 C 0,0 km/h (0 Bft)
31.05.2015 18:30 18,8 C 21,3 C 55 % 1015,4 hPa 0,0 mm 0,3 km/h (0 Bft) O-NO 67 9,6 C 3,4 km/h (1 Bft)
31.05.2015 18:35 18,8 C 21,2 C 55 % 1015,4 hPa 0,0 mm 1,0 km/h (0 Bft) O-NO 67 9,6 C 3,4 km/h (1 Bft)
31.05.2015 18:40 18,8 C 21,0 C 56 % 1015,4 hPa 0,0 mm 1,8 km/h (1 Bft) NO 45 9,8 C 0,0 km/h (0 Bft)
31.05.2015 18:45 18,8 C 21,0 C 56 % 1015,4 hPa 0,0 mm 1,6 km/h (1 Bft) O-NO 67 9,8 C 0,0 km/h (0 Bft)
31.05.2015 18:50 18,7 C 20,8 C 55 % 1015,4 hPa 0,0 mm 0,3 km/h (0 Bft) O-SO 112 9,5 C 0,0 km/h (0 Bft)
31.05.2015 18:55 18,7 C 20,8 C 56 % 1015,4 hPa 0,0 mm 0,3 km/h (0 Bft) O-SO 112 9,7 C 2,8 km/h (1 Bft)
31.05.2015 19:00 18,6 C 20,8 C 55 % 1015,5 hPa 0,0 mm 0,8 km/h (0 Bft) O 90 9,4 C 0,0 km/h (0 Bft)
31.05.2015 19:05 18,6 C 20,7 C 55 % 1015,5 hPa 0,0 mm 0,8 km/h (0 Bft) O 90 9,4 C 0,0 km/h (0 Bft)
31.05.2015 19:10 18,7 C 20,6 C 55 % 1015,5 hPa 0,0 mm 0,3 km/h (0 Bft) NO 45 9,5 C 0,0 km/h (0 Bft)
31.05.2015 19:15 18,7 C 20,4 C 55 % 1015,5 hPa 0,0 mm 1,0 km/h (0 Bft) N-NO 22 9,5 C 3,9 km/h (1 Bft)
31.05.2015 19:20 18,5 C 20,1 C 56 % 1015,3 hPa 0,0 mm 1,0 km/h (0 Bft) O-SO 112 9,6 C 0,0 km/h (0 Bft)
31.05.2015 19:25 18,4 C 20,0 C 57 % 1015,3 hPa 0,0 mm 0,5 km/h (0 Bft) O 90 9,7 C 0,0 km/h (0 Bft)
31.05.2015 19:30 18,3 C 20,1 C 58 % 1015,3 hPa 0,0 mm 0,3 km/h (0 Bft) O-SO 112 9,9 C 3,1 km/h (1 Bft)
31.05.2015 19:35 18,2 C 20,2 C 58 % 1015,3 hPa 0,0 mm 0,3 km/h (0 Bft) O-NO 67 9,8 C 0,0 km/h (0 Bft)
31.05.2015 19:40 18,2 C 20,3 C 58 % 1015,4 hPa 0,0 mm 0,3 km/h (0 Bft) NO 45 9,8 C 0,0 km/h (0 Bft)
31.05.2015 19:45 18,2 C 20,4 C 59 % 1015,4 hPa 0,0 mm 0,3 km/h (0 Bft) NO 45 10,1 C 2,8 km/h (1 Bft)
31.05.2015 19:50 18,2 C 20,8 C 59 % 1015,4 hPa 0,0 mm 0,3 km/h (0 Bft) NO 45 10,1 C 0,0 km/h (0 Bft)
31.05.2015 19:55 18,1 C 20,9 C 59 % 1015,4 hPa 0,0 mm 0,5 km/h (0 Bft) O-NO 67 10,0 C 0,0 km/h (0 Bft)
31.05.2015 20:00 18,1 C 21,1 C 60 % 1015,4 hPa 0,0 mm 0,5 km/h (0 Bft) O-NO 67 10,2 C 0,0 km/h (0 Bft)
31.05.2015 20:05 18,0 C 21,3 C 60 % 1015,4 hPa 0,0 mm 0,0 km/h (0 Bft) O-NO 67 10,1 C 0,0 km/h (0 Bft)
31.05.2015 20:10 17,9 C 21,0 C 60 % 1015,4 hPa 0,0 mm 0,0 km/h (0 Bft) O-NO 67 10,0 C 0,0 km/h (0 Bft)
31.05.2015 20:15 17,7 C 20,4 C 60 % 1015,4 hPa 0,0 mm 0,0 km/h (0 Bft) O-NO 67 9,8 C 0,0 km/h (0 Bft)
31.05.2015 20:20 17,3 C 19,8 C 60 % 1015,4 hPa 0,0 mm 0,0 km/h (0 Bft) O-SO 112 9,5 C 0,0 km/h (0 Bft)
31.05.2015 20:25 17,1 C 19,2 C 60 % 1015,4 hPa 0,0 mm 0,0 km/h (0 Bft) O-SO 112 9,3 C 2,6 km/h (1 Bft)
31.05.2015 20:30 16,8 C 18,8 C 61 % 1015,4 hPa 0,0 mm 0,3 km/h (0 Bft) O-SO 112 9,2 C 3,1 km/h (1 Bft)
31.05.2015 20:35 16,7 C 18,7 C 62 % 1015,4 hPa 0,0 mm 0,3 km/h (0 Bft) O-SO 112 9,4 C 0,0 km/h (0 Bft)
31.05.2015 20:40 16,5 C 18,5 C 63 % 1015,2 hPa 0,0 mm 0,0 km/h (0 Bft) O-SO 112 9,4 C 0,0 km/h (0 Bft)
31.05.2015 20:45 16,3 C 18,1 C 63 % 1015,2 hPa 0,0 mm 0,0 km/h (0 Bft) O-SO 112 9,2 C 0,0 km/h (0 Bft)
31.05.2015 20:50 16,0 C 17,4 C 64 % 1015,2 hPa 0,0 mm 0,0 km/h (0 Bft) O-SO 112 9,2 C 0,0 km/h (0 Bft)
31.05.2015 20:55 15,8 C 16,9 C 66 % 1015,2 hPa 0,0 mm 0,0 km/h (0 Bft) O-SO 112 9,5 C 0,0 km/h (0 Bft)
31.05.2015 21:00 15,4 C 16,1 C 67 % 1015,4 hPa 0,0 mm 0,0 km/h (0 Bft) O-SO 112 9,3 C 0,0 km/h (0 Bft)
31.05.2015 21:05 15,2 C 15,7 C 67 % 1015,4 hPa 0,0 mm 0,0 km/h (0 Bft) O-SO 112 9,1 C 0,0 km/h (0 Bft)
31.05.2015 21:10 14,7 C 15,1 C 68 % 1015,4 hPa 0,0 mm 0,0 km/h (0 Bft) O-SO 112 8,9 C 0,0 km/h (0 Bft)
31.05.2015 21:15 14,4 C 14,8 C 69 % 1015,4 hPa 0,0 mm 0,0 km/h (0 Bft) O-SO 112 8,8 C 0,0 km/h (0 Bft)
31.05.2015 21:20 13,8 C 14,2 C 69 % 1015,4 hPa 0,0 mm 0,0 km/h (0 Bft) O-SO 112 8,2 C 0,0 km/h (0 Bft)
31.05.2015 21:25 13,5 C 13,9 C 70 % 1015,4 hPa 0,0 mm 0,0 km/h (0 Bft) O-SO 112 8,1 C 0,0 km/h (0 Bft)
31.05.2015 21:30 13,3 C 13,7 C 72 % 1015,4 hPa 0,0 mm 0,0 km/h (0 Bft) S-SO 157 8,4 C 0,0 km/h (0 Bft)
31.05.2015 21:35 13,2 C 13,5 C 72 % 1015,4 hPa 0,0 mm 0,0 km/h (0 Bft) S-SO 157 8,3 C 0,0 km/h (0 Bft)
31.05.2015 21:40 12,9 C 13,3 C 74 % 1015,6 hPa 0,0 mm 0,3 km/h (0 Bft) S-SO 157 8,4 C 0,0 km/h (0 Bft)
31.05.2015 21:45 12,8 C 13,1 C 74 % 1015,6 hPa 0,0 mm 0,3 km/h (0 Bft) S 180 8,3 C 0,0 km/h (0 Bft)
31.05.2015 21:50 12,6 C 12,9 C 75 % 1015,6 hPa 0,0 mm 0,3 km/h (0 Bft) S 180 8,3 C 2,8 km/h (1 Bft)
31.05.2015 21:55 12,4 C 12,7 C 75 % 1015,6 hPa 0,0 mm 0,3 km/h (0 Bft) S-SO 157 8,1 C 0,0 km/h (0 Bft)
31.05.2015 22:00 12,2 C 12,5 C 75 % 1015,7 hPa 0,0 mm 0,0 km/h (0 Bft) S-SO 157 7,9 C 0,0 km/h (0 Bft)
31.05.2015 22:05 12,1 C 12,3 C 76 % 1015,7 hPa 0,0 mm 0,0 km/h (0 Bft) S-SO 157 8,0 C 0,0 km/h (0 Bft)
31.05.2015 22:10 12,0 C 12,1 C 76 % 1015,7 hPa 0,0 mm 0,0 km/h (0 Bft) S-SO 157 7,9 C 0,0 km/h (0 Bft)
31.05.2015 22:15 12,0 C 12,1 C 76 % 1015,7 hPa 0,0 mm 0,0 km/h (0 Bft) S-SO 157 7,9 C 0,0 km/h (0 Bft)
31.05.2015 22:20 11,8 C 11,8 C 77 % 1015,9 hPa 0,0 mm 0,0 km/h (0 Bft) S-SO 157 7,9 C 0,0 km/h (0 Bft)
31.05.2015 22:25 11,9 C 11,7 C 77 % 1015,9 hPa 0,0 mm 0,0 km/h (0 Bft) S 180 8,0 C 0,0 km/h (0 Bft)
31.05.2015 22:30 11,7 C 11,5 C 77 % 1015,9 hPa 0,0 mm 0,0 km/h (0 Bft) S-SO 157 7,8 C 0,0 km/h (0 Bft)
31.05.2015 22:35 11,6 C 11,4 C 77 % 1015,9 hPa 0,0 mm 0,0 km/h (0 Bft) S-SO 157 7,7 C 0,0 km/h (0 Bft)
31.05.2015 22:40 11,4 C 11,2 C 78 % 1015,9 hPa 0,0 mm 0,0 km/h (0 Bft) W-SW 247 7,7 C 0,0 km/h (0 Bft)
31.05.2015 22:45 11,5 C 11,2 C 78 % 1015,9 hPa 0,0 mm 0,0 km/h (0 Bft) S-SO 157 7,8 C 0,0 km/h (0 Bft)
31.05.2015 22:50 11,4 C 11,1 C 78 % 1015,9 hPa 0,0 mm 0,0 km/h (0 Bft) S 180 7,7 C 0,0 km/h (0 Bft)
31.05.2015 22:55 11,4 C 11,1 C 78 % 1015,9 hPa 0,0 mm 0,0 km/h (0 Bft) S 180 7,7 C 0,0 km/h (0 Bft)
31.05.2015 23:00 11,4 C 11,1 C 79 % 1015,8 hPa 0,0 mm 0,0 km/h (0 Bft) S-SO 157 7,9 C 0,0 km/h (0 Bft)
31.05.2015 23:05 11,5 C 11,1 C 79 % 1015,8 hPa 0,0 mm 0,0 km/h (0 Bft) S-SO 157 8,0 C 0,0 km/h (0 Bft)
31.05.2015 23:10 11,3 C 11,0 C 79 % 1015,8 hPa 0,0 mm 0,0 km/h (0 Bft) SW 225 7,8 C 0,0 km/h (0 Bft)
31.05.2015 23:15 11,3 C 10,9 C 79 % 1015,8 hPa 0,0 mm 0,0 km/h (0 Bft) SW 225 7,8 C 0,0 km/h (0 Bft)
31.05.2015 23:20 11,1 C 10,7 C 79 % 1015,8 hPa 0,0 mm 0,0 km/h (0 Bft) SW 225 7,6 C 0,0 km/h (0 Bft)
31.05.2015 23:25 11,0 C 10,7 C 79 % 1015,8 hPa 0,0 mm 0,0 km/h (0 Bft) SW 225 7,5 C 0,0 km/h (0 Bft)
31.05.2015 23:30 11,0 C 10,6 C 79 % 1015,8 hPa 0,0 mm 0,0 km/h (0 Bft) W-SW 247 7,5 C 0,0 km/h (0 Bft)
31.05.2015 23:35 10,9 C 10,5 C 79 % 1015,8 hPa 0,0 mm 0,0 km/h (0 Bft) S 180 7,4 C 0,0 km/h (0 Bft)
31.05.2015 23:40 10,8 C 10,4 C 80 % 1015,8 hPa 0,0 mm 0,0 km/h (0 Bft) SW 225 7,5 C 0,0 km/h (0 Bft)
31.05.2015 23:45 10,8 C 10,4 C 80 % 1015,8 hPa 0,0 mm 0,0 km/h (0 Bft) W-SW 247 7,5 C 0,0 km/h (0 Bft)
31.05.2015 23:50 10,7 C 10,3 C 80 % 1015,8 hPa 0,0 mm 0,0 km/h (0 Bft) S-SO 157 7,4 C 0,0 km/h (0 Bft)
31.05.2015 23:55 10,7 C 10,3 C 80 % 1015,8 hPa 0,0 mm 0,0 km/h (0 Bft) S-SO 157 7,4 C 0,0 km/h (0 Bft)
_ Min-Zeit 05:30 05:30 18:05 20:55 - 23:55 - - 05:35 23:55
Minimum _ 5,9 C 5,8 C 53 % 1015,2 hPa - 0,0 km/h (0 Bft) - - 4,2 C 0,0 km/h (0 Bft)
_ Max-Zeit 14:20 11:15 06:05 01:15 23:55 14:25 - - 14:20 13:55
Maximum _ 19,8 C 26,5 C 89 % 1017,8 hPa 0,0 mm 8,3 km/h
W (2 Bft)
- - 10,5 C 21,8 km/h
N-NO (4 Bft)
Durchschnitt _ 13,6 C 16,3 C 72 % 1016,3 hPa #0,0 mm 1,4 km/h (1 Bft) NW - 8,4 C 2,2 km/h (1 Bft)